Simultaneous Nadir Overpasses (SNOs) Predictions

Prediction of SNOs between LANDSAT-8 and METOP-A Satellite Orbit:

Table of predicted SNOs for the next 14.0 days since TLE Epoch: 5/21/2015
Index Date (LANDSAT-8) Time (LANDSAT-8) Lat,Lon (LANDSAT-8) SZA (LANDSAT-8 ) Date (METOP-A) Time (METOP-A) Lat,Lon (METOP-A) SZA (METOP-A ) Distance(km) Time Diff (sec)
1 05/23/2015 07:55:09 81.16, 101.77 62.93 05/23/2015 07:54:00 81.17, 101.59 62.88 3.08 69
2 05/23/2015 08:44:34 -81.21, -89.85 116.97 05/23/2015 08:44:37 -81.21, -89.68 116.95 2.81 3
3 05/26/2015 03:29:24 81.18, 168.43 62.44 05/26/2015 03:28:20 81.17, 168.25 62.39 3.12 64
4 05/26/2015 04:18:50 -81.20, -23.54 117.51 05/26/2015 04:18:58 -81.20, -23.39 117.49 2.60 8
5 05/28/2015 23:03:38 81.18,-125.05 61.98 05/28/2015 23:02:39 81.18,-125.15 61.94 1.65 59
6 05/28/2015 23:53:04 -81.21, 42.99 117.97 05/28/2015 23:53:18 -81.20, 42.85 117.99 2.58 14
7 05/31/2015 18:37:53 81.18, -58.67 61.54 05/31/2015 18:36:59 81.18, -58.60 61.53 1.41 54
8 05/31/2015 19:27:19 -81.20, 109.38 118.41 05/31/2015 19:27:38 -81.20, 109.41 118.40 0.51 19
9 06/03/2015 14:12:07 81.19, 7.93 61.18 06/03/2015 14:11:19 81.19, 7.89 61.16 0.72 48




NCC Satellite Simultaneous Nadir Overpasses (SNOs) Prediction Service
